Year,Month,Day,Hour,Minute,Value (Times are PST for temperature in C)
2013,05,04,00,00,13.60
2013,05,04,00,01,13.60
2013,05,04,00,02,13.60
2013,05,04,00,03,13.60
2013,05,04,00,04,13.60
2013,05,04,00,05,13.60
2013,05,04,00,06,13.60
2013,05,04,00,07,13.60
2013,05,04,00,08,13.60
2013,05,04,00,09,13.60
2013,05,04,00,10,13.60
2013,05,04,00,11,13.60
2013,05,04,00,12,13.50
2013,05,04,00,13,13.50
2013,05,04,00,14,13.50
2013,05,04,00,15,13.50
2013,05,04,00,16,13.40
2013,05,04,00,17,13.40
2013,05,04,00,18,13.40
2013,05,04,00,19,13.30
2013,05,04,00,20,13.30
2013,05,04,00,21,13.30
2013,05,04,00,22,13.20
2013,05,04,00,23,13.20
2013,05,04,00,24,13.20
2013,05,04,00,25,13.20
2013,05,04,00,26,13.20
2013,05,04,00,27,13.10
2013,05,04,00,28,13.10
2013,05,04,00,29,13.10
2013,05,04,00,30,13.00
2013,05,04,00,31,12.90
2013,05,04,00,32,12.90
2013,05,04,00,33,12.80
2013,05,04,00,34,12.80
2013,05,04,00,35,12.70
2013,05,04,00,36,12.70
2013,05,04,00,37,12.70
2013,05,04,00,38,12.70
2013,05,04,00,39,12.70
2013,05,04,00,40,12.70
2013,05,04,00,41,12.60
2013,05,04,00,42,12.60
2013,05,04,00,43,12.60
2013,05,04,00,44,12.50
2013,05,04,00,45,12.50
2013,05,04,00,46,12.50
2013,05,04,00,47,12.40
2013,05,04,00,48,12.40
2013,05,04,00,49,12.40
2013,05,04,00,50,12.50
2013,05,04,00,51,12.50
2013,05,04,00,52,12.50
2013,05,04,00,53,12.60
2013,05,04,00,54,12.60
2013,05,04,00,55,12.60
2013,05,04,00,56,12.60
2013,05,04,00,57,12.60
2013,05,04,00,58,12.60
2013,05,04,00,59,12.60
2013,05,04,01,00,12.60
2013,05,04,01,01,12.60
2013,05,04,01,02,12.60
2013,05,04,01,03,12.50
2013,05,04,01,04,12.50
2013,05,04,01,05,12.50
2013,05,04,01,06,12.40
2013,05,04,01,07,12.40
2013,05,04,01,08,12.40
2013,05,04,01,09,12.40
2013,05,04,01,10,12.30
2013,05,04,01,11,12.30
2013,05,04,01,12,12.30
2013,05,04,01,13,12.30
2013,05,04,01,14,12.30
2013,05,04,01,15,12.30
2013,05,04,01,16,12.30
2013,05,04,01,17,12.30
2013,05,04,01,18,12.20
2013,05,04,01,19,12.20
2013,05,04,01,20,12.20
2013,05,04,01,21,12.20
2013,05,04,01,22,12.20
2013,05,04,01,23,12.20
2013,05,04,01,24,12.20
2013,05,04,01,25,12.20
2013,05,04,01,26,12.20
2013,05,04,01,27,12.20
2013,05,04,01,28,12.30
2013,05,04,01,29,12.30
2013,05,04,01,30,12.40
2013,05,04,01,31,12.40
2013,05,04,01,32,12.50
2013,05,04,01,33,12.50
2013,05,04,01,34,12.60
2013,05,04,01,35,12.60
2013,05,04,01,36,12.70
2013,05,04,01,37,12.70
2013,05,04,01,38,12.80
2013,05,04,01,39,12.90
2013,05,04,01,40,12.90
2013,05,04,01,41,13.00
2013,05,04,01,42,13.10
2013,05,04,01,43,13.10
2013,05,04,01,44,13.20
2013,05,04,01,45,13.30
2013,05,04,01,46,13.30
2013,05,04,01,47,13.30
2013,05,04,01,48,13.30
2013,05,04,01,49,13.30
2013,05,04,01,50,13.30
2013,05,04,01,51,13.30
2013,05,04,01,52,13.30
2013,05,04,01,53,13.30
2013,05,04,01,54,13.30
2013,05,04,01,55,13.30
2013,05,04,01,56,13.30
2013,05,04,01,57,13.30
2013,05,04,01,58,13.30
2013,05,04,01,59,13.30
2013,05,04,02,00,13.30
2013,05,04,02,01,13.30
2013,05,04,02,02,13.30
2013,05,04,02,03,13.30
2013,05,04,02,04,13.20
2013,05,04,02,05,13.20
2013,05,04,02,06,13.20
2013,05,04,02,07,13.30
2013,05,04,02,08,13.30
2013,05,04,02,09,13.30
2013,05,04,02,10,13.30
2013,05,04,02,11,13.40
2013,05,04,02,12,13.40
2013,05,04,02,13,13.50
2013,05,04,02,14,13.50
2013,05,04,02,15,13.60
2013,05,04,02,16,13.60
2013,05,04,02,17,13.60
2013,05,04,02,18,13.50
2013,05,04,02,19,13.50
2013,05,04,02,20,13.50
2013,05,04,02,21,13.50
2013,05,04,02,22,13.50
2013,05,04,02,23,13.50
2013,05,04,02,24,13.50
2013,05,04,02,25,13.50
2013,05,04,02,26,13.50
2013,05,04,02,27,13.40
2013,05,04,02,28,13.40
2013,05,04,02,29,13.30
2013,05,04,02,30,13.30
2013,05,04,02,31,13.30
2013,05,04,02,32,13.30
2013,05,04,02,33,13.30
2013,05,04,02,34,13.30
2013,05,04,02,35,13.30
2013,05,04,02,36,13.30
2013,05,04,02,37,13.30
2013,05,04,02,38,13.30
2013,05,04,02,39,13.30
2013,05,04,02,40,13.40
2013,05,04,02,41,13.40
2013,05,04,02,42,13.40
2013,05,04,02,43,13.40
2013,05,04,02,44,13.30
2013,05,04,02,45,13.30
2013,05,04,02,46,13.30
2013,05,04,02,47,13.30
2013,05,04,02,48,13.20
2013,05,04,02,49,13.20
2013,05,04,02,50,13.20
2013,05,04,02,51,13.20
2013,05,04,02,52,13.20
2013,05,04,02,53,13.20
2013,05,04,02,54,13.20
2013,05,04,02,55,13.20
2013,05,04,02,56,13.20
2013,05,04,02,57,13.20
2013,05,04,02,58,13.30
2013,05,04,02,59,13.30
2013,05,04,03,00,13.40
2013,05,04,03,01,13.40
2013,05,04,03,02,13.40
2013,05,04,03,03,13.40
2013,05,04,03,04,13.30
2013,05,04,03,05,13.30
2013,05,04,03,06,13.30
2013,05,04,03,07,13.30
2013,05,04,03,08,13.20
2013,05,04,03,09,13.20
2013,05,04,03,10,13.10
2013,05,04,03,11,13.10
2013,05,04,03,12,13.10
2013,05,04,03,13,13.00
2013,05,04,03,14,13.00
2013,05,04,03,15,13.00
2013,05,04,03,16,12.90
2013,05,04,03,17,12.90
2013,05,04,03,18,12.90
2013,05,04,03,19,12.90
2013,05,04,03,20,12.80
2013,05,04,03,21,12.80
2013,05,04,03,22,12.80
2013,05,04,03,23,12.80
2013,05,04,03,24,12.70
2013,05,04,03,25,12.70
2013,05,04,03,26,12.70
2013,05,04,03,27,12.70
2013,05,04,03,28,12.70
2013,05,04,03,29,12.70
2013,05,04,03,30,12.60
2013,05,04,03,31,12.60
2013,05,04,03,32,12.60
2013,05,04,03,33,12.60
2013,05,04,03,34,12.60
2013,05,04,03,35,12.60
2013,05,04,03,36,12.60
2013,05,04,03,37,12.60
2013,05,04,03,38,12.60
2013,05,04,03,39,12.60
2013,05,04,03,40,12.50
2013,05,04,03,41,12.50
2013,05,04,03,42,12.50
2013,05,04,03,43,12.50
2013,05,04,03,44,12.50
2013,05,04,03,45,12.50
2013,05,04,03,46,12.50
2013,05,04,03,47,12.50
2013,05,04,03,48,12.50
2013,05,04,03,49,12.50
2013,05,04,03,50,12.50
2013,05,04,03,51,12.50
2013,05,04,03,52,12.60
2013,05,04,03,53,12.60
2013,05,04,03,54,12.60
2013,05,04,03,55,12.60
2013,05,04,03,56,12.50
2013,05,04,03,57,12.40
2013,05,04,03,58,12.40
2013,05,04,03,59,12.30
2013,05,04,04,00,12.30
2013,05,04,04,01,12.30
2013,05,04,04,02,12.30
2013,05,04,04,03,12.30
2013,05,04,04,04,12.30
2013,05,04,04,05,12.30
2013,05,04,04,06,12.20
2013,05,04,04,07,12.20
2013,05,04,04,08,12.20
2013,05,04,04,09,12.10
2013,05,04,04,10,12.10
2013,05,04,04,11,12.10
2013,05,04,04,12,12.10
2013,05,04,04,13,12.10
2013,05,04,04,14,12.00
2013,05,04,04,15,12.00
2013,05,04,04,16,12.00
2013,05,04,04,17,12.00
2013,05,04,04,18,12.00
2013,05,04,04,19,12.00
2013,05,04,04,20,12.00
2013,05,04,04,21,12.00
2013,05,04,04,22,11.90
2013,05,04,04,23,11.90
2013,05,04,04,24,11.90
2013,05,04,04,25,11.90
2013,05,04,04,26,11.90
2013,05,04,04,27,11.90
2013,05,04,04,28,11.80
2013,05,04,04,29,11.80
2013,05,04,04,30,11.80
2013,05,04,04,31,11.90
2013,05,04,04,32,11.90
2013,05,04,04,33,11.90
2013,05,04,04,34,11.90
2013,05,04,04,35,11.90
2013,05,04,04,36,11.90
2013,05,04,04,37,11.90
2013,05,04,04,38,11.90
2013,05,04,04,39,11.90
2013,05,04,04,40,11.90
2013,05,04,04,41,11.90
2013,05,04,04,42,11.90
2013,05,04,04,43,11.90
2013,05,04,04,44,11.90
2013,05,04,04,45,11.90
2013,05,04,04,46,11.90
2013,05,04,04,47,11.90
2013,05,04,04,48,11.90
2013,05,04,04,49,11.90
2013,05,04,04,50,12.00
2013,05,04,04,51,12.00
2013,05,04,04,52,12.00
2013,05,04,04,53,12.00
2013,05,04,04,54,12.00
2013,05,04,04,55,12.10
2013,05,04,04,56,12.10
2013,05,04,04,57,12.10
2013,05,04,04,58,12.10
2013,05,04,04,59,12.10
2013,05,04,05,00,12.10
2013,05,04,05,01,12.10
2013,05,04,05,02,12.20
2013,05,04,05,03,12.20
2013,05,04,05,04,12.20
2013,05,04,05,05,12.20
2013,05,04,05,06,12.10
2013,05,04,05,07,12.10
2013,05,04,05,08,12.10
2013,05,04,05,09,12.10
2013,05,04,05,10,12.10
2013,05,04,05,11,12.20
2013,05,04,05,12,12.20
2013,05,04,05,13,12.20
2013,05,04,05,14,12.20
2013,05,04,05,15,12.20
2013,05,04,05,16,12.20
2013,05,04,05,17,12.20
2013,05,04,05,18,12.20
2013,05,04,05,19,12.20
2013,05,04,05,20,12.20
2013,05,04,05,21,12.20
2013,05,04,05,22,12.20
2013,05,04,05,23,12.30
2013,05,04,05,24,12.30
2013,05,04,05,25,12.30
2013,05,04,05,26,12.30
2013,05,04,05,27,12.30
2013,05,04,05,28,12.30
2013,05,04,05,29,12.30
2013,05,04,05,30,12.30
2013,05,04,05,31,12.30
2013,05,04,05,32,12.30
2013,05,04,05,33,12.30
2013,05,04,05,34,12.30
2013,05,04,05,35,12.20
2013,05,04,05,36,12.20
2013,05,04,05,37,12.20
2013,05,04,05,38,12.20
2013,05,04,05,39,12.20
2013,05,04,05,40,12.20
2013,05,04,05,41,12.20
2013,05,04,05,42,12.20
2013,05,04,05,43,12.20
2013,05,04,05,44,12.20
2013,05,04,05,45,12.20
2013,05,04,05,46,12.20
2013,05,04,05,47,12.20
2013,05,04,05,48,12.20
2013,05,04,05,49,12.10
2013,05,04,05,50,12.10
2013,05,04,05,51,12.10
2013,05,04,05,52,12.10
2013,05,04,05,53,12.10
2013,05,04,05,54,12.10
2013,05,04,05,55,12.10
2013,05,04,05,56,12.10
2013,05,04,05,57,12.10
2013,05,04,05,58,12.10
2013,05,04,05,59,12.10
2013,05,04,06,00,12.10
2013,05,04,06,01,12.10
2013,05,04,06,02,12.10
2013,05,04,06,03,12.10
2013,05,04,06,04,12.10
2013,05,04,06,05,12.10
2013,05,04,06,06,12.10
2013,05,04,06,07,12.10
2013,05,04,06,08,12.10
2013,05,04,06,09,12.10
2013,05,04,06,10,12.10
2013,05,04,06,11,12.10
2013,05,04,06,12,12.10
2013,05,04,06,13,12.10
2013,05,04,06,14,12.10
2013,05,04,06,15,12.10
2013,05,04,06,16,12.10
2013,05,04,06,17,12.10
2013,05,04,06,18,12.10
2013,05,04,06,19,12.20
2013,05,04,06,20,12.20
2013,05,04,06,21,12.20
2013,05,04,06,22,12.20
2013,05,04,06,23,12.20
2013,05,04,06,24,12.20
2013,05,04,06,25,12.20
2013,05,04,06,26,12.30
2013,05,04,06,27,12.30
2013,05,04,06,28,12.30
2013,05,04,06,29,12.30
2013,05,04,06,30,12.30
2013,05,04,06,31,12.40
2013,05,04,06,32,12.40
2013,05,04,06,33,12.40
2013,05,04,06,34,12.40
2013,05,04,06,35,12.50
2013,05,04,06,36,12.50
2013,05,04,06,37,12.50
2013,05,04,06,38,12.60
2013,05,04,06,39,12.60
2013,05,04,06,40,12.60
2013,05,04,06,41,12.60
2013,05,04,06,42,12.60
2013,05,04,06,43,12.60
2013,05,04,06,44,12.60
2013,05,04,06,45,12.70
2013,05,04,06,46,12.70
2013,05,04,06,47,12.70
2013,05,04,06,48,12.70
2013,05,04,06,49,12.70
2013,05,04,06,50,12.70
2013,05,04,06,51,12.80
2013,05,04,06,52,12.80
2013,05,04,06,53,12.80
2013,05,04,06,54,12.80
2013,05,04,06,55,12.80
2013,05,04,06,56,12.90
2013,05,04,06,57,12.90
2013,05,04,06,58,12.90
2013,05,04,06,59,12.90
2013,05,04,07,00,13.00
2013,05,04,07,01,13.00
2013,05,04,07,02,13.10
2013,05,04,07,03,13.10
2013,05,04,07,04,13.10
2013,05,04,07,05,13.20
2013,05,04,07,06,13.20
2013,05,04,07,07,13.20
2013,05,04,07,08,13.30
2013,05,04,07,09,13.30
2013,05,04,07,10,13.30
2013,05,04,07,11,13.30
2013,05,04,07,12,13.40
2013,05,04,07,13,13.40
2013,05,04,07,14,13.40
2013,05,04,07,15,13.40
2013,05,04,07,16,13.50
2013,05,04,07,17,13.50
2013,05,04,07,18,13.50
2013,05,04,07,19,13.60
2013,05,04,07,20,13.60
2013,05,04,07,21,13.60
2013,05,04,07,22,13.60
2013,05,04,07,23,13.60
2013,05,04,07,24,13.60
2013,05,04,07,25,13.60
2013,05,04,07,26,13.60
2013,05,04,07,27,13.70
2013,05,04,07,28,13.70
2013,05,04,07,29,13.70
2013,05,04,07,30,13.70
2013,05,04,07,31,13.70
2013,05,04,07,32,13.70
2013,05,04,07,33,13.80
2013,05,04,07,34,13.80
2013,05,04,07,35,13.80
2013,05,04,07,36,13.90
2013,05,04,07,37,13.90
2013,05,04,07,38,13.90
2013,05,04,07,39,14.00
2013,05,04,07,40,14.00
2013,05,04,07,41,14.10
2013,05,04,07,42,14.10
2013,05,04,07,43,14.10
2013,05,04,07,44,14.10
2013,05,04,07,45,14.10
2013,05,04,07,46,14.20
2013,05,04,07,47,14.20
2013,05,04,07,48,14.20
2013,05,04,07,49,14.30
2013,05,04,07,50,14.30
2013,05,04,07,51,14.30
2013,05,04,07,52,14.30
2013,05,04,07,53,14.30
2013,05,04,07,54,14.30
2013,05,04,07,55,14.40
2013,05,04,07,56,14.40
2013,05,04,07,57,14.40
2013,05,04,07,58,14.40
2013,05,04,07,59,14.50
2013,05,04,08,00,14.50
2013,05,04,08,01,14.60
2013,05,04,08,02,14.60
2013,05,04,08,03,14.60
2013,05,04,08,04,14.60
2013,05,04,08,05,14.60
2013,05,04,08,06,14.60
2013,05,04,08,07,14.60
2013,05,04,08,08,14.70
2013,05,04,08,09,14.70
2013,05,04,08,10,14.70
2013,05,04,08,11,14.70
2013,05,04,08,12,14.80
2013,05,04,08,13,14.80
2013,05,04,08,14,14.80
2013,05,04,08,15,14.80
2013,05,04,08,16,14.90
2013,05,04,08,17,14.90
2013,05,04,08,18,14.90
2013,05,04,08,19,14.90
2013,05,04,08,20,15.00
2013,05,04,08,21,15.00
2013,05,04,08,22,15.00
2013,05,04,08,23,15.10
2013,05,04,08,24,15.10
2013,05,04,08,25,15.10
2013,05,04,08,26,15.10
2013,05,04,08,27,15.20
2013,05,04,08,28,15.20
2013,05,04,08,29,15.20
2013,05,04,08,30,15.20
2013,05,04,08,31,15.20
2013,05,04,08,32,15.20
2013,05,04,08,33,15.20
2013,05,04,08,34,15.20
2013,05,04,08,35,15.20
2013,05,04,08,36,15.20
2013,05,04,08,37,15.20
2013,05,04,08,38,15.20
2013,05,04,08,39,15.20
2013,05,04,08,40,15.30
2013,05,04,08,41,15.30
2013,05,04,08,42,15.30
2013,05,04,08,43,15.30
2013,05,04,08,44,15.30
2013,05,04,08,45,15.40
2013,05,04,08,46,15.40
2013,05,04,08,47,15.40
2013,05,04,08,48,15.40
2013,05,04,08,49,15.40
2013,05,04,08,50,15.40
2013,05,04,08,51,15.50
2013,05,04,08,52,15.50
2013,05,04,08,53,15.60
2013,05,04,08,54,15.60
2013,05,04,08,55,15.70
2013,05,04,08,56,15.70
2013,05,04,08,57,15.70
2013,05,04,08,58,15.70
2013,05,04,08,59,15.70
2013,05,04,09,00,15.70
2013,05,04,09,01,15.70
2013,05,04,09,02,15.70
2013,05,04,09,03,15.70
2013,05,04,09,04,15.70
2013,05,04,09,05,15.70
2013,05,04,09,06,15.70
2013,05,04,09,07,15.70
2013,05,04,09,08,15.80
2013,05,04,09,09,15.80
2013,05,04,09,10,15.90
2013,05,04,09,11,15.90
2013,05,04,09,12,16.00
2013,05,04,09,13,16.00
2013,05,04,09,14,16.00
2013,05,04,09,15,16.10
2013,05,04,09,16,16.10
2013,05,04,09,17,16.10
2013,05,04,09,18,16.10
2013,05,04,09,19,16.10
2013,05,04,09,20,16.20
2013,05,04,09,21,16.30
2013,05,04,09,22,16.30
2013,05,04,09,23,16.40
2013,05,04,09,24,16.40
2013,05,04,09,25,16.40
2013,05,04,09,26,16.50
2013,05,04,09,27,16.60
2013,05,04,09,28,16.60
2013,05,04,09,29,16.60
2013,05,04,09,30,16.70
2013,05,04,09,31,16.70
2013,05,04,09,32,16.80
2013,05,04,09,33,16.90
2013,05,04,09,34,16.90
2013,05,04,09,35,16.90
2013,05,04,09,36,16.90
2013,05,04,09,37,16.90
2013,05,04,09,38,16.80
2013,05,04,09,39,16.70
2013,05,04,09,40,16.60
2013,05,04,09,41,16.50
2013,05,04,09,42,16.40
2013,05,04,09,43,16.40
2013,05,04,09,44,16.40
2013,05,04,09,45,16.40
2013,05,04,09,46,16.40
2013,05,04,09,47,16.40
2013,05,04,09,48,16.30
2013,05,04,09,49,16.20
2013,05,04,09,50,16.20
2013,05,04,09,51,16.10
2013,05,04,09,52,16.10
2013,05,04,09,53,16.10
2013,05,04,09,54,16.10
2013,05,04,09,55,15.90
2013,05,04,09,56,15.70
2013,05,04,09,57,15.60
2013,05,04,09,58,15.40
2013,05,04,09,59,15.40
2013,05,04,10,00,15.40
2013,05,04,10,01,15.40
2013,05,04,10,02,15.40
2013,05,04,10,03,15.40
2013,05,04,10,04,15.30
2013,05,04,10,05,15.30
2013,05,04,10,06,15.20
2013,05,04,10,07,15.30
2013,05,04,10,08,15.30
2013,05,04,10,09,15.40
2013,05,04,10,10,15.40
2013,05,04,10,11,15.50
2013,05,04,10,12,15.60
2013,05,04,10,13,15.60
2013,05,04,10,14,15.60
2013,05,04,10,15,15.70
2013,05,04,10,16,15.70
2013,05,04,10,17,15.70
2013,05,04,10,18,15.80
2013,05,04,10,19,15.80
2013,05,04,10,20,15.90
2013,05,04,10,21,15.90
2013,05,04,10,22,16.00
2013,05,04,10,23,16.10
2013,05,04,10,24,16.10
2013,05,04,10,25,16.10
2013,05,04,10,26,16.20
2013,05,04,10,27,16.20
2013,05,04,10,28,16.20
2013,05,04,10,29,16.20
2013,05,04,10,30,16.20
2013,05,04,10,31,16.10
2013,05,04,10,32,16.10
2013,05,04,10,33,16.10
2013,05,04,10,34,16.10
2013,05,04,10,35,16.10
2013,05,04,10,36,16.10
2013,05,04,10,37,16.10
2013,05,04,10,38,16.10
2013,05,04,10,39,16.10
2013,05,04,10,40,16.20
2013,05,04,10,41,16.20
2013,05,04,10,42,16.30
2013,05,04,10,43,16.30
2013,05,04,10,44,16.20
2013,05,04,10,45,16.20
2013,05,04,10,46,16.30
2013,05,04,10,47,16.30
2013,05,04,10,48,16.30
2013,05,04,10,49,16.20
2013,05,04,10,50,16.30
2013,05,04,10,51,16.30
2013,05,04,10,52,16.30
2013,05,04,10,53,16.30
2013,05,04,10,54,16.30
2013,05,04,10,55,16.40
2013,05,04,10,56,16.40
2013,05,04,10,57,16.40
2013,05,04,10,58,16.40
2013,05,04,10,59,16.40
2013,05,04,11,00,16.40
2013,05,04,11,01,16.40
2013,05,04,11,02,16.40
2013,05,04,11,03,16.40
2013,05,04,11,04,16.50
2013,05,04,11,05,16.50
2013,05,04,11,06,16.50
2013,05,04,11,07,16.60
2013,05,04,11,08,16.60
2013,05,04,11,09,16.60
2013,05,04,11,10,16.70
2013,05,04,11,11,16.70
2013,05,04,11,12,16.70
2013,05,04,11,13,16.70
2013,05,04,11,14,16.80
2013,05,04,11,15,16.80
2013,05,04,11,16,16.90
2013,05,04,11,17,17.00
2013,05,04,11,18,17.10
2013,05,04,11,19,17.20
2013,05,04,11,20,17.30
2013,05,04,11,21,17.20
2013,05,04,11,22,17.20
2013,05,04,11,23,17.20
2013,05,04,11,24,17.20
2013,05,04,11,25,17.30
2013,05,04,11,26,17.30
2013,05,04,11,27,17.40
2013,05,04,11,28,17.40
2013,05,04,11,29,17.50
2013,05,04,11,30,17.60
2013,05,04,11,31,17.60
2013,05,04,11,32,17.60
2013,05,04,11,33,17.60
2013,05,04,11,34,17.60
2013,05,04,11,35,17.70
2013,05,04,11,36,17.70
2013,05,04,11,37,17.60
2013,05,04,11,38,17.60
2013,05,04,11,39,17.60
2013,05,04,11,40,17.50
2013,05,04,11,41,17.50
2013,05,04,11,42,17.50
2013,05,04,11,43,17.50
2013,05,04,11,44,17.60
2013,05,04,11,45,17.60
2013,05,04,11,46,17.70
2013,05,04,11,47,17.70
2013,05,04,11,48,17.70
2013,05,04,11,49,17.70
2013,05,04,11,50,17.70
2013,05,04,11,51,17.60
2013,05,04,11,52,17.50
2013,05,04,11,53,17.50
2013,05,04,11,54,17.50
2013,05,04,11,55,17.40
2013,05,04,11,56,17.40
2013,05,04,11,57,17.40
2013,05,04,11,58,17.40
2013,05,04,11,59,17.40
2013,05,04,12,00,17.50
2013,05,04,12,01,17.50
2013,05,04,12,02,17.60
2013,05,04,12,03,17.60
2013,05,04,12,04,17.60
2013,05,04,12,05,17.60
2013,05,04,12,06,17.60
2013,05,04,12,07,17.60
2013,05,04,12,08,17.70
2013,05,04,12,09,17.70
2013,05,04,12,10,17.70
2013,05,04,12,11,17.70
2013,05,04,12,12,17.80
2013,05,04,12,13,17.80
2013,05,04,12,14,17.90
2013,05,04,12,15,17.90
2013,05,04,12,16,18.00
2013,05,04,12,17,18.00
2013,05,04,12,18,18.10
2013,05,04,12,19,18.00
2013,05,04,12,20,17.90
2013,05,04,12,21,17.90
2013,05,04,12,22,17.90
2013,05,04,12,23,17.90
2013,05,04,12,24,17.90
2013,05,04,12,25,17.90
2013,05,04,12,26,17.90
2013,05,04,12,27,18.00
2013,05,04,12,28,18.10
2013,05,04,12,29,18.20
2013,05,04,12,30,18.30
2013,05,04,12,31,18.40
2013,05,04,12,32,18.50
2013,05,04,12,33,18.60
2013,05,04,12,34,18.70
2013,05,04,12,35,18.80
2013,05,04,12,36,18.90
2013,05,04,12,37,19.00
2013,05,04,12,38,19.10
2013,05,04,12,39,19.20
2013,05,04,12,40,19.30
2013,05,04,12,41,19.40
2013,05,04,12,42,19.50
2013,05,04,12,43,19.60
2013,05,04,12,44,19.60
2013,05,04,12,45,19.60
2013,05,04,12,46,19.50
2013,05,04,12,47,19.40
2013,05,04,12,48,19.40
2013,05,04,12,49,19.40
2013,05,04,12,50,19.50
2013,05,04,12,51,19.60
2013,05,04,12,52,19.70
2013,05,04,12,53,19.80
2013,05,04,12,54,19.90
2013,05,04,12,55,19.80
2013,05,04,12,56,19.90
2013,05,04,12,57,19.90
2013,05,04,12,58,19.90
2013,05,04,12,59,20.00
2013,05,04,13,00,20.10
2013,05,04,13,01,20.20
2013,05,04,13,02,20.30
2013,05,04,13,03,20.30
2013,05,04,13,04,20.30
2013,05,04,13,05,20.40
2013,05,04,13,06,20.50
2013,05,04,13,07,20.60
2013,05,04,13,08,20.70
2013,05,04,13,09,20.80
2013,05,04,13,10,20.90
2013,05,04,13,11,20.80
2013,05,04,13,12,20.80
2013,05,04,13,13,20.80
2013,05,04,13,14,20.70
2013,05,04,13,15,20.70
2013,05,04,13,16,20.70
2013,05,04,13,17,20.70
2013,05,04,13,18,20.70
2013,05,04,13,19,20.80
2013,05,04,13,20,20.70
2013,05,04,13,21,20.70
2013,05,04,13,22,20.70
2013,05,04,13,23,20.80
2013,05,04,13,24,20.80
2013,05,04,13,25,20.90
2013,05,04,13,26,20.90
2013,05,04,13,27,20.90
2013,05,04,13,28,20.90
2013,05,04,13,29,20.80
2013,05,04,13,30,20.80
2013,05,04,13,31,20.80
2013,05,04,13,32,20.80
2013,05,04,13,33,20.80
2013,05,04,13,34,20.80
2013,05,04,13,35,20.80
2013,05,04,13,36,20.80
2013,05,04,13,37,20.80
2013,05,04,13,38,20.80
2013,05,04,13,39,20.70
2013,05,04,13,40,20.70
2013,05,04,13,41,20.70
2013,05,04,13,42,20.70
2013,05,04,13,43,20.80
2013,05,04,13,44,20.80
2013,05,04,13,45,20.90
2013,05,04,13,46,21.00
2013,05,04,13,47,21.00
2013,05,04,13,48,21.10
2013,05,04,13,49,21.20
2013,05,04,13,50,21.20
2013,05,04,13,51,21.20
2013,05,04,13,52,21.30
2013,05,04,13,53,21.40
2013,05,04,13,54,21.40
2013,05,04,13,55,21.50
2013,05,04,13,56,21.60
2013,05,04,13,57,21.60
2013,05,04,13,58,21.70
2013,05,04,13,59,21.60
2013,05,04,14,00,21.40
2013,05,04,14,01,21.20
2013,05,04,14,02,21.10
2013,05,04,14,03,21.10
2013,05,04,14,04,21.10
2013,05,04,14,05,21.10
2013,05,04,14,06,21.00
2013,05,04,14,07,21.00
2013,05,04,14,08,20.90
2013,05,04,14,09,20.90
2013,05,04,14,10,20.90
2013,05,04,14,11,21.00
2013,05,04,14,12,21.10
2013,05,04,14,13,21.20
2013,05,04,14,14,21.30
2013,05,04,14,15,21.40
2013,05,04,14,16,21.60
2013,05,04,14,17,21.70
2013,05,04,14,18,21.80
2013,05,04,14,19,21.80
2013,05,04,14,20,21.80
2013,05,04,14,21,21.70
2013,05,04,14,22,21.60
2013,05,04,14,23,21.50
2013,05,04,14,24,21.50
2013,05,04,14,25,21.40
2013,05,04,14,26,21.40
2013,05,04,14,27,21.30
2013,05,04,14,28,21.30
2013,05,04,14,29,21.40
2013,05,04,14,30,21.40
2013,05,04,14,31,21.40
2013,05,04,14,32,21.30
2013,05,04,14,33,21.20
2013,05,04,14,34,21.10
2013,05,04,14,35,21.10
2013,05,04,14,36,21.00
2013,05,04,14,37,21.00
2013,05,04,14,38,21.10
2013,05,04,14,39,21.10
2013,05,04,14,40,21.10
2013,05,04,14,41,21.20
2013,05,04,14,42,21.20
2013,05,04,14,43,21.20
2013,05,04,14,44,21.20
2013,05,04,14,45,21.20
2013,05,04,14,46,21.20
2013,05,04,14,47,21.20
2013,05,04,14,48,21.20
2013,05,04,14,49,21.20
2013,05,04,14,50,21.30
2013,05,04,14,51,21.30
2013,05,04,14,52,21.30
2013,05,04,14,53,21.30
2013,05,04,14,54,21.30
2013,05,04,14,55,21.40
2013,05,04,14,56,21.40
2013,05,04,14,57,21.40
2013,05,04,14,58,21.40
2013,05,04,14,59,21.40
2013,05,04,15,00,21.30
2013,05,04,15,01,21.30
2013,05,04,15,02,21.40
2013,05,04,15,03,21.40
2013,05,04,15,04,21.30
2013,05,04,15,05,21.20
2013,05,04,15,06,21.20
2013,05,04,15,07,21.10
2013,05,04,15,08,21.10
2013,05,04,15,09,21.10
2013,05,04,15,10,21.10
2013,05,04,15,11,21.10
2013,05,04,15,12,21.10
2013,05,04,15,13,21.10
2013,05,04,15,14,21.10
2013,05,04,15,15,21.10
2013,05,04,15,16,21.20
2013,05,04,15,17,21.20
2013,05,04,15,18,21.20
2013,05,04,15,19,21.30
2013,05,04,15,20,21.30
2013,05,04,15,21,21.30
2013,05,04,15,22,21.40
2013,05,04,15,23,21.40
2013,05,04,15,24,21.50
2013,05,04,15,25,21.50
2013,05,04,15,26,21.60
2013,05,04,15,27,21.70
2013,05,04,15,28,21.70
2013,05,04,15,29,21.80
2013,05,04,15,30,21.90
2013,05,04,15,31,22.00
2013,05,04,15,32,22.10
2013,05,04,15,33,22.10
2013,05,04,15,34,22.10
2013,05,04,15,35,22.10
2013,05,04,15,36,22.10
2013,05,04,15,37,22.10
2013,05,04,15,38,22.10
2013,05,04,15,39,22.10
2013,05,04,15,40,22.10
2013,05,04,15,41,22.10
2013,05,04,15,42,22.10
2013,05,04,15,43,22.10
2013,05,04,15,44,22.00
2013,05,04,15,45,22.00
2013,05,04,15,46,22.00
2013,05,04,15,47,22.00
2013,05,04,15,48,22.00
2013,05,04,15,49,22.00
2013,05,04,15,50,22.00
2013,05,04,15,51,22.00
2013,05,04,15,52,22.00
2013,05,04,15,53,21.90
2013,05,04,15,54,21.90
2013,05,04,15,55,22.00
2013,05,04,15,56,22.00
2013,05,04,15,57,22.00
2013,05,04,15,58,22.10
2013,05,04,15,59,22.10
2013,05,04,16,00,22.20
2013,05,04,16,01,22.20
2013,05,04,16,02,22.20
2013,05,04,16,03,22.20
2013,05,04,16,04,22.20
2013,05,04,16,05,22.20
2013,05,04,16,06,22.20
2013,05,04,16,07,22.20
2013,05,04,16,08,22.10
2013,05,04,16,09,22.10
2013,05,04,16,10,22.10
2013,05,04,16,11,22.10
2013,05,04,16,12,22.10
2013,05,04,16,13,22.10
2013,05,04,16,14,22.10
2013,05,04,16,15,22.10
2013,05,04,16,16,22.10
2013,05,04,16,17,22.10
2013,05,04,16,18,22.10
2013,05,04,16,19,22.10
2013,05,04,16,20,22.00
2013,05,04,16,21,22.00
2013,05,04,16,22,21.90
2013,05,04,16,23,21.90
2013,05,04,16,24,21.90
2013,05,04,16,25,21.90
2013,05,04,16,26,21.90
2013,05,04,16,27,21.90
2013,05,04,16,28,21.90
2013,05,04,16,29,21.90
2013,05,04,16,30,21.90
2013,05,04,16,31,21.90
2013,05,04,16,32,22.00
2013,05,04,16,33,22.10
2013,05,04,16,34,22.10
2013,05,04,16,35,22.10
2013,05,04,16,36,22.20
2013,05,04,16,37,22.20
2013,05,04,16,38,22.20
2013,05,04,16,39,22.20
2013,05,04,16,40,22.20
2013,05,04,16,41,22.30
2013,05,04,16,42,22.30
2013,05,04,16,43,22.30
2013,05,04,16,44,22.30
2013,05,04,16,45,22.20
2013,05,04,16,46,22.20
2013,05,04,16,47,22.10
2013,05,04,16,48,22.10
2013,05,04,16,49,22.10
2013,05,04,16,50,22.00
2013,05,04,16,51,21.90
2013,05,04,16,52,21.80
2013,05,04,16,53,21.80
2013,05,04,16,54,21.70
2013,05,04,16,55,21.70
2013,05,04,16,56,21.70
2013,05,04,16,57,21.70
2013,05,04,16,58,21.70
2013,05,04,16,59,21.60
2013,05,04,17,00,21.60
2013,05,04,17,01,21.60
2013,05,04,17,02,21.60
2013,05,04,17,03,21.60
2013,05,04,17,04,21.50
2013,05,04,17,05,21.50
2013,05,04,17,06,21.40
2013,05,04,17,07,21.40
2013,05,04,17,08,21.30
2013,05,04,17,09,21.40
2013,05,04,17,10,21.30
2013,05,04,17,11,21.30
2013,05,04,17,12,21.40
2013,05,04,17,13,21.40
2013,05,04,17,14,21.40
2013,05,04,17,15,21.40
2013,05,04,17,16,21.40
2013,05,04,17,17,21.40
2013,05,04,17,18,21.50
2013,05,04,17,19,21.50